Back to catalog

CZ-4C R/B

AliveSSO
NORAD 49010·ROCKET BODY·🇨🇳 China

Launched Jul 4, 2021 from Jiuquan Satellite Launch Center

Loading…

Next Passes (next 24 hours)

TLE

FreshSource: Space-Track

Epoch: Sep 14, 2026, 04:56 UTC

1 49010U 21062C   26257.20608315  .00000185  00000-0  47534-4 0  9993
2 49010  98.5259 348.3548 0131943  10.0517 350.3272 14.57286166276096

Track CZ-4C R/B in real time with AllMySat

Download on the App Store